Weather Roundup
Issued by NWS Chicago, IL

Home | Current Version | Previous Version | Graphics & Text | Print | Product List | Glossary On
Versions: 1 2 3 4 5 6 7 8 9 10 11 12 13 14 15 16 17 18 19 20 21 22 23 24 25 26 27 28 29 30 31 32 33 34 35 36 37 38 39 40 41 42 43 44 45 46 47 48 49 50
000
NZUS59 KLOT 201210
HRRLOT

CHICAGO AREA WEATHER ROUNDUP
NATIONAL WEATHER SERVICE CHICAGO/ROMEOVILLE IL
700 AM CDT SUN APR 20 2014

NOTE: "FAIR" INDICATES FEW OR NO CLOUDS BELOW 12,000 FEET WITH NO
SIGNIFICANT WEATHER AND/OR OBSTRUCTIONS TO VISIBILITY.

* THESE STATIONS ARE NOT UNDER NWS QUALITY CONTROL. THEY ALSO MAY NOT
  REPORT WEATHER SUCH AS PRECIPITATION OR FOG.

ILZ005-006-012>014-019>023-201300-
NORTHEAST ILLINOIS

CITY           SKY/WX    TMP DP  RH WIND       PRES   REMARKS
OHARE          MOCLDY    45  30  55 S8        30.23R
6HR MIN TEMP:  41; 6HR MAX TEMP:  53;

MIDWAY         MOCLDY    47  27  45 S5        30.24R
6HR MIN TEMP:  47; 6HR MAX TEMP:  55;

AURORA         PTCLDY    43  33  68 SE6       30.23R
6HR MIN TEMP:  41; 6HR MAX TEMP:  53;

LANSING*       PTCLDY    44  29  54 S5        30.25R
JOLIET*        CLEAR     44  30  58 SE6       30.25R
WAUKEGAN       PTCLDY    45  36  70 S8        30.21R
6HR MIN TEMP:  38; 6HR MAX TEMP:  50;

DUPAGE AIRPORT PTCLDY    45  30  55 S8        30.23R
6HR MIN TEMP:  39; 6HR MAX TEMP:  53;

WHEELING       PTCLDY    47  31  53 S7        30.24R
6HR MIN TEMP:  40; 6HR MAX TEMP:  49;

KANKAKEE*      PTCLDY    42  33  70 E6        30.26R
MORRIS*        CLEAR     42  32  67 CALM      30.23R
LEWIS AIRPORT* CLEAR     44  29  56 S9        30.24R
NORTHERLY IS     N/A     48  27  44 S8          N/A
$$

WIZ051-052-058>065-066-070>072-201300-
SOUTHEAST WISCONSIN

CITY           SKY/WX    TMP DP  RH WIND       PRES   REMARKS
MILWAUKEE      MOCLDY    48  34  58 S6        30.21R
6HR MIN TEMP:  46; 6HR MAX TEMP:  50;

KENOSHA*       MOCLDY    48  33  56 S10       30.21R
RACINE*        MOCLDY    44  35  70 S7        30.22R
BURLINGTON     CLOUDY    46  36  68 S6        30.19S
WAUKESHA       CLEAR     46  34  61 S7        30.20R
WEST BEND      CLOUDY    50  34  53 S5        30.18R
$$

INZ001>003-010>013-019-020-201300-
NORTHWEST INDIANA

CITY           SKY/WX    TMP DP  RH WIND       PRES   REMARKS
GARY*          PTCLDY    46  27  46 SE9       30.25R
MICHIGAN CITY* NOT AVBL
RENSSELAER*    NOT AVBL
VALPARAISO     MOSUNNY   38  29  70 E5        30.26R
$$

LMZ740>746-201300-
SOUTHERN LAKE MICHIGAN

STATION/POSITION TIME  SKY/WX   TEMP WIND        PRES    VSBY
                                AIR  DIR/SP/G
                 (UTC)          (F)  (DEG/KT/KT) (MB)    (MI)
HARRISON CRIB    1200            47  180/ 15/ 17   N/A
BURNHAM HARBOR   1200            48  200/  9       N/A
CALUMET HARBOR   1200            47  170/  8/ 11 1024.6R
BURNS HARBOR     NOT AVBL
MICHIGAN CITY    1200            46  130/ 13/ 17   N/A
$$

ABBREVIATIONS USED IN REMARKS
   TC - TEMPERATURE IN CELSIUS
  WCI - WIND CHILL INDEX
   HX - HEAT INDEX
  VSB - VISIBILITY
$$


USA.gov is the U.S. government's official web portal to all federal, state and local government web resources and services.